(471363) = 2011 SQ38 = 2014 DA126

Discovered at Kitt Peak on 2008-01-14 by Spacewatch.

Orbit

Orbit type: Main Belt

Note: WebGL enabled browser required.

epoch2023-09-13.0
epoch JD2460200.5
perihelion date2022-10-10.61319
perihelion JD2459863.11319
argument of perihelion (°)16.41836
ascending node (°)342.13884
inclination (°)8.84812
eccentricity0.0815927
perihelion distance (AU)2.8764608
Tisserand w.r.t. Jupiter3.2
ΔV w.r.t. Earth (km/sec)10.9
semimajor axis (AU)3.1320099
mean anomaly (°)59.99254
mean daily motion (°/day)0.17781530
aphelion distance (AU)3.388
period (years)5.54
P-vector [x]0.99865129
P-vector [y]-0.04333228
P-vector [z]0.02859918
Q-vector [x]0.02167779
Q-vector [y]0.84853325
Q-vector [z]0.52869783
absolute magnitude16.36
phase slope0.15
uncertainty0
referenceMPEC 2024-A34
observations used216
oppositions10
arc length (days)5833
first opposition used2008
last opposition used2024
residual rms (arc-secs)0.76
perturbers coarse indicatorM-v
perturbers precise indicator003Ek
first observation date used2008-01-14.0
last observation date used2024-01-03.0
computer nameMPCLINUX
JD of orbit computation2457608.314010
perihelion JD uncertainty (days)3.8279E-04
argument of perihelion uncertainty (°)6.4018E-05
ascending node uncertainty (°)3.2266E-05
inclination uncertainty (°)1.0678E-05
eccentricity uncertainty 1.8990E-07
perihelion distance uncertainty (AU)7.0440E-07
Minimum Orbit Intersection Distances (in AU)
for orbit epoch: 2460200.5, reference: E2024-A34
Mercury2.50178
Venus2.15417
Earth1.87248
Mars1.48996
Jupiter2.02442
Saturn5.88488
Uranus15.0663
Neptune26.9515

Observations

226 total observations over interval: 2008 01 14.34386 – 2024 01 03.282944
These data are available for download (format description).

Date (UT) J2000 RA J2000 Dec Magn Location Ref
2008 01 14.34386 09 22 00.94 +22 38 02.2 21.8 V 691 – Steward Observatory, Kitt Peak-Spacewatch MPS 505435
2008 01 14.36206 09 22 00.04 +22 38 04.5 20.9 V 691 – Steward Observatory, Kitt Peak-Spacewatch MPS 505435
2008 01 14.37971 09 21 59.22 +22 38 07.6 21.0 V 691 – Steward Observatory, Kitt Peak-Spacewatch MPS 505435
2008 02 10.33613 08 58 53.22 +23 32 17.5 20.8 V G96 – Mt. Lemmon Survey MPS 505435
2008 02 10.34775 08 58 52.57 +23 32 18.5 20.7 V G96 – Mt. Lemmon Survey MPS 505435
2008 02 10.35925 08 58 51.99 +23 32 19.1 21.3 V G96 – Mt. Lemmon Survey MPS 505435
2008 02 10.37088 08 58 51.34 +23 32 19.9 21.2 V G96 – Mt. Lemmon Survey MPS 505435
2011 09 04.42452 00 11 40.672 +04 48 24.70 21.0 w F51 – Pan-STARRS 1, Haleakala MPS 394324
2011 09 04.43949 00 11 40.032 +04 48 23.96 20.9 w F51 – Pan-STARRS 1, Haleakala MPS 394324
2011 09 04.45438 00 11 39.393 +04 48 23.16 21.1 w F51 – Pan-STARRS 1, Haleakala MPS 394324
2011 09 04.46930 00 11 38.760 +04 48 22.52 21.1 w F51 – Pan-STARRS 1, Haleakala MPS 394324
2011 09 20.97802 23 58 53.42 +04 21 49.9 19.7   B01 – Taunus Observatory, Frankfurt MPS 392850
2011 09 20.98807 23 58 52.88 +04 21 48.4 20.4   B01 – Taunus Observatory, Frankfurt MPS 392850
2011 09 20.99812 23 58 52.34 +04 21 47.1 20.2   B01 – Taunus Observatory, Frankfurt MPS 392850
2011 09 21.01069 23 58 51.68 +04 21 44.8 20.0   B01 – Taunus Observatory, Frankfurt MPS 392850
2011 09 23.90190 23 56 28.24 +04 15 07.5 20.2   B01 – Taunus Observatory, Frankfurt MPS 392850
2011 09 23.91195 23 56 27.73 +04 15 06.1 20.2   B01 – Taunus Observatory, Frankfurt MPS 392850
2011 09 23.92203 23 56 27.20 +04 15 04.9 20.1   B01 – Taunus Observatory, Frankfurt MPS 392850
2011 09 23.93213 23 56 26.67 +04 15 04.0 20.0   B01 – Taunus Observatory, Frankfurt MPS 392850
2011 09 25.85344 23 54 51.52 +04 10 26.2 19.5   B01 – Taunus Observatory, Frankfurt MPS 392850
2011 09 25.86288 23 54 51.03 +04 10 24.4 19.8   B01 – Taunus Observatory, Frankfurt MPS 392850
2011 09 25.87359 23 54 50.39 +04 10 24.1 19.4   B01 – Taunus Observatory, Frankfurt MPS 392850
2011 09 25.88365 23 54 49.97 +04 10 22.7 19.8   B01 – Taunus Observatory, Frankfurt MPS 392850
2011 09 26.28179 23 54 30.31 +04 09 24.0 20.0 V 703 – Catalina Sky Survey MPS 392850
2011 09 26.28896 23 54 29.98 +04 09 24.4 19.7 V 703 – Catalina Sky Survey MPS 392850
2011 09 26.29551 23 54 29.55 +04 09 22.5 20.2 V G96 – Mt. Lemmon Survey MPS 392850
2011 09 26.29613 23 54 29.55 +04 09 22.1 20.0 V 703 – Catalina Sky Survey MPS 392850
2011 09 26.30242 23 54 29.23 +04 09 21.3 20.0 V G96 – Mt. Lemmon Survey MPS 392850
2011 09 26.30336 23 54 29.01 +04 09 21.5 19.2 V 703 – Catalina Sky Survey MPS 392850
2011 09 26.30927 23 54 28.87 +04 09 20.5 20.2 V G96 – Mt. Lemmon Survey MPS 392850
2011 09 26.31611 23 54 28.51 +04 09 19.6 20.4 V G96 – Mt. Lemmon Survey MPS 392850
2011 10 06.12484 23 46 41.77 +03 44 45.7 20.3 V G96 – Mt. Lemmon Survey MPS 394324
2011 10 06.13310 23 46 41.41 +03 44 44.6 20.9 V G96 – Mt. Lemmon Survey MPS 394324
2011 10 06.14149 23 46 40.98 +03 44 42.7 20.4 V G96 – Mt. Lemmon Survey MPS 394324
2011 10 06.14984 23 46 40.62 +03 44 42.1 19.9 V G96 – Mt. Lemmon Survey MPS 394324
2014 02 26.30575 11 00 50.14 +06 22 35.9 20.3 V G96 – Mt. Lemmon Survey MPS 505435
2014 02 26.31031 11 00 49.86 +06 22 36.7 20.6 V G96 – Mt. Lemmon Survey MPS 505435
2014 02 26.31487 11 00 49.66 +06 22 37.8 20.5 V G96 – Mt. Lemmon Survey MPS 505435
2014 02 26.31943 11 00 49.40 +06 22 38.4 20.6 V G96 – Mt. Lemmon Survey MPS 505435
2014 02 26.47129 11 00 42.126 +06 23 04.08 21.0 w F51 – Pan-STARRS 1, Haleakala MPS 505435
2014 02 26.48290 11 00 41.558 +06 23 06.04 21.0 w F51 – Pan-STARRS 1, Haleakala MPS 505435
2014 02 26.49442 11 00 40.987 +06 23 08.03 20.9 w F51 – Pan-STARRS 1, Haleakala MPS 505435
2014 02 26.50596 11 00 40.416 +06 23 09.92 20.9 w F51 – Pan-STARRS 1, Haleakala MPS 505435
2014 02 28.39987 10 59 09.301 +06 28 28.19 20.7 w F51 – Pan-STARRS 1, Haleakala MPS 504234
2014 02 28.41225 10 59 08.689 +06 28 30.32 20.8 w F51 – Pan-STARRS 1, Haleakala MPS 504234
2014 02 28.42477 10 59 08.060 +06 28 32.45 20.8 w F51 – Pan-STARRS 1, Haleakala MPS 504234
2014 02 28.43717 10 59 07.442 +06 28 34.46 20.8 w F51 – Pan-STARRS 1, Haleakala MPS 504234
2014 03 06.35211 10 54 20.294 +06 45 12.62 20.5 i F51 – Pan-STARRS 1, Haleakala MPS 504234
2014 03 06.37569 10 54 19.108 +06 45 16.54 20.7 i F51 – Pan-STARRS 1, Haleakala MPS 504234
2014 03 06.38753 10 54 18.511 +06 45 18.46 20.3 i F51 – Pan-STARRS 1, Haleakala MPS 504234
2014 03 20.19526 10 43 40.35 +07 20 47.2 21.0 V G96 – Mt. Lemmon Survey MPS 506474
2014 03 20.20303 10 43 40.00 +07 20 48.1 20.9 V G96 – Mt. Lemmon Survey MPS 506474
2014 03 20.21080 10 43 39.67 +07 20 49.1 20.9 V G96 – Mt. Lemmon Survey MPS 506474
2014 03 20.21857 10 43 39.30 +07 20 50.6 21.5 V G96 – Mt. Lemmon Survey MPS 506474
2015 06 08.32091 14 32 17.143 -27 12 20.22 21.2 w F51 – Pan-STARRS 1, Haleakala MPS 609891
2015 06 08.33153 14 32 16.808 -27 12 17.81 21.2 w F51 – Pan-STARRS 1, Haleakala MPS 609891
2015 06 08.34212 14 32 16.465 -27 12 15.44 21.2 w F51 – Pan-STARRS 1, Haleakala MPS 609891
2016 07 31.42747 21 00 04.720 -24 37 36.71 20.4 w F51 – Pan-STARRS 1, Haleakala MPS 722029
2016 07 31.43781 21 00 04.148 -24 37 37.61 20.5 w F51 – Pan-STARRS 1, Haleakala MPS 722029
2016 07 31.44815 21 00 03.581 -24 37 38.34 20.3 w F51 – Pan-STARRS 1, Haleakala MPS 722029
2016 07 31.45852 21 00 02.997 -24 37 39.03 20.3 w F51 – Pan-STARRS 1, Haleakala MPS 722029
2016 08 07.39678 20 53 52.303 -24 44 32.01 20.4 w F51 – Pan-STARRS 1, Haleakala MPS 723482
2016 08 07.40774 20 53 51.699 -24 44 32.45 20.4 w F51 – Pan-STARRS 1, Haleakala MPS 723482
2016 08 07.42969 20 53 50.490 -24 44 33.34 20.4 w F51 – Pan-STARRS 1, Haleakala MPS 723482
2016 09 27.27966 20 28 57.123 -23 14 43.64 21.3 w F51 – Pan-STARRS 1, Haleakala MPS 732288
2016 09 27.29157 20 28 57.194 -23 14 40.70 21.4 w F51 – Pan-STARRS 1, Haleakala MPS 732288
2016 09 27.30344 20 28 57.217 -23 14 38.26 21.3 w F51 – Pan-STARRS 1, Haleakala MPS 732288
2016 09 27.32305 20 28 57.305 -23 14 33.56 21.4 w F51 – Pan-STARRS 1, Haleakala MPS 732288
2017 08 04.58320 02 45 11.199 +22 35 43.86 21.4 w F51 – Pan-STARRS 1, Haleakala MPS 810226
2017 08 04.59554 02 45 11.804 +22 35 49.02 21.9 w F51 – Pan-STARRS 1, Haleakala MPS 810226
2017 08 04.60799 02 45 12.413 +22 35 54.19 22.0 w F51 – Pan-STARRS 1, Haleakala MPS 810226
2017 09 01.54077 03 01 46.817 +25 31 25.47 21.3 i F51 – Pan-STARRS 1, Haleakala MPS 815014
2017 09 01.55180 03 01 47.001 +25 31 28.72 21.2 i F51 – Pan-STARRS 1, Haleakala MPS 815014
2017 09 01.56280 03 01 47.193 +25 31 32.55 21.1 i F51 – Pan-STARRS 1, Haleakala MPS 815014
2017 09 01.57384 03 01 47.383 +25 31 36.33 21.3 i F51 – Pan-STARRS 1, Haleakala MPS 815014
2017 10 18.31002 02 49 54.44 +27 56 11.0 20.5 G G96 – Mt. Lemmon Survey MPS 828103
2017 10 18.31574 02 49 54.14 +27 56 10.9 20.7 G G96 – Mt. Lemmon Survey MPS 828103
2017 10 18.32146 02 49 53.88 +27 56 10.8 20.9 G G96 – Mt. Lemmon Survey MPS 828103
2017 10 18.32719 02 49 53.64 +27 56 10.5 19.5 G G96 – Mt. Lemmon Survey MPS 828103
2017 10 28.30487 02 41 25.57 +27 48 22.3 20.7 G G96 – Mt. Lemmon Survey MPS 834220
2017 10 28.31054 02 41 25.26 +27 48 22.0 20.2 G G96 – Mt. Lemmon Survey MPS 834220
2017 10 28.31611 02 41 24.93 +27 48 21.5 20.6 G G96 – Mt. Lemmon Survey MPS 834220
2017 10 28.32177 02 41 24.65 +27 48 20.9 20.8 G G96 – Mt. Lemmon Survey MPS 834220
2017 11 13.37336 02 26 56.94 +27 06 13.8 20.9 G G96 – Mt. Lemmon Survey MPS 839054
2017 11 13.37866 02 26 56.66 +27 06 12.1 20.2 G G96 – Mt. Lemmon Survey MPS 839054
2017 11 13.38393 02 26 56.37 +27 06 11.1 20.7 G G96 – Mt. Lemmon Survey MPS 839054
2017 11 13.38927 02 26 56.09 +27 06 09.9 19.6 G G96 – Mt. Lemmon Survey MPS 839054
2017 11 18.28151 02 22 52.317 +26 48 00.79 20.5 w F51 – Pan-STARRS 1, Haleakala MPS 842840
2017 11 18.29388 02 22 51.699 +26 47 58.06 20.5 w F51 – Pan-STARRS 1, Haleakala MPS 842840
2017 11 18.30627 02 22 51.086 +26 47 55.20 20.6 w F51 – Pan-STARRS 1, Haleakala MPS 842840
2017 11 18.31869 02 22 50.471 +26 47 52.29 20.6 w F51 – Pan-STARRS 1, Haleakala MPS 842840
2017 11 27.18994 02 16 26.89 +26 11 52.2 21.1 G G96 – Mt. Lemmon Survey MPS 845017
